Location: Newark
(51.2625°N, 13.3939°E)
Time: 20:02:15
(UTC+00:00)

deb Explorer IX - Pass Details

Date: 20 November 2019
Orbit: 546 x 1105 km, 38.8° (Epoch: 09 December)

Event Time Altitude Azimuth Distance (km) Brightness Sun altitude
Rises 01:51:10 0° 245° (WSW) 3,598 - -42.8°
Reaches altitude 10° 01:54:26 10° 232° (SW) 2,549 - -42.4°
Maximum altitude 01:59:01 23° 182° (S) 1,669 - -41.7°
Drops below altitude 10° 02:03:06 10° 132° (SE) 2,245 - -41.1°
Exits shadow 02:04:39 - 122° (ESE) 2,698 ? -40.9°
Sets 02:05:47 0° 117° (ESE) 3,069 ? -40.7°
